Weather in Shchurovo

Russia / Yaroslavl Oblast     57°10′11″N   38°48′55″E
temp.,
°C
wind,
m/s
gust,
m/s
humid.,
%
clouds,
%
prec.,
mm/h
press.,
hPa
HPBL,
m
11 april, sun
sun1100:00+3ssw414735 0.0 1023363
03:00+2ssw413787 0.0 1024312
06:00+1sw39875 0.0 1025213
09:00+6wsw25777 0.0 1027311
12:00+9wsw357099 0.0 1028813
15:00+11w246894 0.0 1029869
18:00+8ene1192100 0.0 103115
21:00+6e2595100 0.0 103297
12 april, mon
mon1200:00+6sse2591100 0.0 103388
03:00+5sse239092 0.0 103451
06:00+4sse258940 0.0 103590
09:00+9sse36735 0.0 1035289
12:00+12se476358 0.0 1034778
15:00+13ese5760100 0.0 1033976
18:00+11ese4972100 0.0 1031614
21:00+8se41281100 0.0 1031582
13 april, tue
tue1300:00+6se31088100 0.0 1029318
03:00+5se3996100 0.0 1028210
06:00+5se2898100 0.0 1027168
09:00+10s3779100 0.0 1026280
12:00+15s4860100 0.0 1025631
15:00+17s4853100 0.0 1024971
18:00+15s3862100 0.0 1023238
21:00+11s2117496 0.0 1024205
14 april, wed
wed1400:00+9s31178100 0.0 1023204
03:00+8s397938 0.0 1023137
06:00+8s387691 0.0 1022134
09:00+13s38587 0.0 1022286
12:00+18s4847100 0.0 1021713
15:00+18ssw4745100 0.0 10201246
18:00+15s2458100 0.0 101982
21:00+12s2768100 0.0 1020122
15 april, thu
thu1500:00+9ssw277174 0.0 1019116
03:00+8wnw117997 0.0 101912
06:00+6nnw2593100 0.0 1019118
09:00+7n3483100 0.0 1019298
12:00+10n3472100 0.0 1019567
15:00+9n4574100 0.0 1020713
18:00+5n5984100 0.0 1022600
21:00+3nne41195100 0.8 1024701